| time (UTC) | temp F | wind direction | speed knots | gust knots | rain 1hr in | rain 24hr in | rain mn in | humidity % | barometer mb |
| 20260507030803 | 66 | 135 | 0.0 | 0.0 | 0.00 | 0.00 | 0.00 | 86 | 1010.1 |
| 20260507030303 | 67 | 135 | 0.0 | 0.0 | 0.00 | 0.00 | 0.00 | 85 | 1009.9 |
| 20260507025307 | 67 | 135 | 0.0 | 0.0 | 0.00 | 0.00 | 0.00 | 85 | 1010.1 |
| 20260507024814 | 67 | 135 | 0.0 | 0.0 | 0.00 | 0.00 | 0.00 | 85 | 1010.2 |
| 20260507024306 | 67 | 135 | 0.0 | 0.0 | 0.00 | 0.00 | 0.00 | 84 | 1010.4 |
| 20260507023805 | 67 | 135 | 0.0 | 0.0 | 0.00 | 0.00 | 0.00 | 84 | 1010.3 |
| 20260507023305 | 67 | 135 | 0.0 | 0.9 | 0.00 | 0.00 | 0.00 | 84 | 1010.4 |
| 20260507022803 | 67 | 135 | 0.0 | 0.9 | 0.00 | 0.00 | 0.00 | 84 | 1010.3 |
| 20260507022306 | 68 | 135 | 0.0 | 0.0 | 0.00 | 0.00 | 0.00 | 84 | 1010.3 |
| 20260507021802 | 68 | 135 | 0.0 | 0.0 | 0.00 | 0.00 | 0.00 | 83 | 1010.3 |
| 20260507021304 | 68 | 135 | 0.0 | 0.9 | 0.00 | 0.00 | 0.00 | 83 | 1010.4 |
| 20260507020806 | 68 | 135 | 0.0 | 0.9 | 0.00 | 0.00 | 0.00 | 83 | 1010.5 |
| 20260507020302 | 68 | 135 | 0.0 | 0.9 | 0.00 | 0.00 | 0.00 | 83 | 1010.5 |
| 20260507015808 | 68 | 135 | 0.0 | 0.9 | 0.00 | 0.00 | 0.00 | 83 | 1010.7 |
| 20260507015306 | 68 | 132 | 0.0 | 0.9 | 0.00 | 0.00 | 0.00 | 83 | 1010.9 |
| 20260507014804 | 68 | 132 | 0.0 | 0.0 | 0.00 | 0.00 | 0.00 | 83 | 1010.8 |
| 20260507014303 | 68 | 132 | 0.0 | 0.9 | 0.00 | 0.00 | 0.00 | 83 | 1010.6 |
| 20260507013808 | 68 | 132 | 0.0 | 0.9 | 0.00 | 0.00 | 0.00 | 82 | 1010.5 |
| 20260507012307 | 69 | 132 | 0.0 | 0.9 | 0.00 | 0.00 | 0.00 | 82 | 1010.5 |
| 20260507011804 | 69 | 132 | 0.0 | 0.9 | 0.00 | 0.00 | 0.00 | 81 | 1010.5 |
| 20260507011301 | 69 | 132 | 0.0 | 0.0 | 0.00 | 0.00 | 0.00 | 81 | 1010.6 |
| 20260507010801 | 69 | 132 | 0.0 | 0.0 | 0.00 | 0.00 | 0.00 | 81 | 1010.5 |
| 20260507010301 | 69 | 132 | 0.0 | 0.9 | 0.00 | 0.00 | 0.00 | 81 | 1010.6 |
| 20260507005804 | 69 | 132 | 0.0 | 0.9 | 0.00 | 0.00 | 0.00 | 80 | 1010.5 |
| 20260507005305 | 69 | 132 | 0.0 | 0.0 | 0.00 | 0.00 | 0.00 | 80 | 1010.4 |
| 20260507004804 | 69 | 132 | 0.0 | 0.9 | 0.00 | 0.00 | 0.00 | 80 | 1010.3 |
| 20260507003759 | 70 | 132 | 0.0 | 0.0 | 0.00 | 0.00 | 0.00 | 80 | 1010.2 |
| 20260507002241 | 70 | 132 | 0.0 | 0.9 | 0.00 | 0.00 | 0.00 | 79 | 1010.0 |
| 20260507001740 | 70 | 132 | 0.0 | 0.9 | 0.00 | 0.00 | 0.00 | 79 | 1010.0 |
| 20260507001240 | 70 | 132 | 0.0 | 0.9 | 0.00 | 0.00 | 0.00 | 79 | 1010.0 |
| 20260507000738 | 70 | 132 | 0.0 | 0.9 | 0.00 | 0.00 | 0.00 | 78 | 1010.0 |
| 20260507000239 | 71 | 132 | 0.0 | 0.9 | 0.00 | 0.00 | 0.00 | 78 | 1009.8 |
| 20260506235739 | 71 | 132 | 0.0 | 0.9 | 0.00 | 0.00 | 0.00 | 78 | 1009.9 |
| 20260506235233 | 71 | 132 | 0.0 | 0.9 | 0.00 | 0.00 | 0.00 | 78 | 1009.9 |
| 20260506234734 | 71 | 132 | 0.0 | 0.9 | 0.00 | 0.00 | 0.00 | 78 | 1009.8 |
| 20260506234234 | 71 | 132 | 0.0 | 0.9 | 0.00 | 0.00 | 0.00 | 77 | 1009.8 |
| 20260506233739 | 71 | 132 | 0.0 | 0.9 | 0.00 | 0.00 | 0.00 | 77 | 1009.8 |
| 20260506233236 | 71 | 132 | 0.0 | 0.9 | 0.00 | 0.00 | 0.00 | 77 | 1009.7 |
| 20260506232737 | 71 | 132 | 0.0 | 1.7 | 0.00 | 0.00 | 0.00 | 77 | 1009.6 |
| 20260506232237 | 71 | 132 | 0.0 | 1.7 | 0.00 | 0.00 | 0.00 | 76 | 1009.7 |
| 20260506231737 | 71 | 125 | 0.0 | 1.7 | 0.00 | 0.00 | 0.00 | 76 | 1009.8 |
| 20260506231243 | 72 | 125 | 0.0 | 2.6 | 0.00 | 0.00 | 0.00 | 76 | 1009.7 |
| 20260506230736 | 72 | 126 | 0.0 | 2.6 | 0.00 | 0.00 | 0.00 | 77 | 1009.8 |
| 20260506224734 | 72 | 113 | 0.0 | 1.7 | 0.00 | 0.00 | 0.00 | 76 | 1009.8 |
| 20260506224231 | 72 | 113 | 0.0 | 1.7 | 0.00 | 0.00 | 0.00 | 76 | 1009.7 |
| 20260506223233 | 72 | 107 | 0.0 | 2.6 | 0.00 | 0.00 | 0.00 | 76 | 1009.7 |
| 20260506222743 | 72 | 112 | 0.0 | 1.7 | 0.00 | 0.00 | 0.00 | 76 | 1009.7 |
| 20260506222232 | 72 | 104 | 0.9 | 2.6 | 0.00 | 0.00 | 0.00 | 76 | 1009.8 |
| 20260506221232 | 72 | 133 | 0.0 | 3.5 | 0.00 | 0.00 | 0.00 | 76 | 1009.8 |
| 20260506220731 | 72 | 67 | 0.0 | 2.6 | 0.00 | 0.00 | 0.00 | 77 | 1009.7 |
| 20260506220300 | 72 | 51 | 0.9 | 5.2 | 0.00 | 0.00 | 0.00 | 76 | 1009.7 |
| 20260506214731 | 72 | 349 | 0.9 | 4.3 | 0.00 | 0.00 | 0.00 | 76 | 1009.5 |
| 20260506214230 | 72 | 169 | 0.0 | 4.3 | 0.00 | 0.00 | 0.00 | 77 | 1009.6 |
| 20260506213732 | 72 | 175 | 0.9 | 3.5 | 0.00 | 0.00 | 0.00 | 77 | 1009.6 |
| 20260506213233 | 72 | 148 | 0.9 | 4.3 | 0.00 | 0.00 | 0.00 | 77 | 1009.6 |
| 20260506212730 | 71 | 120 | 0.9 | 4.3 | 0.00 | 0.00 | 0.00 | 77 | 1009.5 |
| 20260506212237 | 71 | 9 | 0.0 | 3.5 | 0.00 | 0.00 | 0.00 | 77 | 1009.4 |
| 20260506211731 | 71 | 111 | 0.0 | 3.5 | 0.00 | 0.00 | 0.00 | 77 | 1009.6 |
| 20260506211230 | 71 | 146 | 0.9 | 2.6 | 0.00 | 0.00 | 0.00 | 77 | 1009.4 |
| 20260506210732 | 71 | 119 | 0.9 | 2.6 | 0.00 | 0.00 | 0.00 | 77 | 1009.2 |
| 20260506205231 | 71 | 76 | 0.9 | 2.6 | 0.00 | 0.00 | 0.00 | 76 | 1009.4 |
| 20260506204731 | 71 | 126 | 0.9 | 4.3 | 0.00 | 0.00 | 0.00 | 76 | 1009.1 |
| 20260506204233 | 71 | 154 | 0.0 | 4.3 | 0.00 | 0.00 | 0.00 | 76 | 1009.4 |
| 20260506203729 | 71 | 119 | 0.9 | 3.5 | 0.00 | 0.00 | 0.00 | 76 | 1009.4 |
| 20260506203231 | 71 | 150 | 0.9 | 2.6 | 0.00 | 0.00 | 0.00 | 76 | 1009.3 |
| 20260506202733 | 72 | 147 | 0.9 | 2.6 | 0.00 | 0.00 | 0.00 | 75 | 1009.3 |
| 20260506202230 | 72 | 185 | 0.9 | 1.7 | 0.00 | 0.00 | 0.00 | 76 | 1009.5 |
| 20260506201731 | 72 | 126 | 0.9 | 5.2 | 0.00 | 0.00 | 0.00 | 76 | 1009.7 |
| 20260506201233 | 72 | 183 | 0.9 | 5.2 | 0.00 | 0.00 | 0.00 | 75 | 1009.8 |
| 20260506200731 | 72 | 73 | 0.9 | 3.5 | 0.00 | 0.00 | 0.00 | 76 | 1009.9 |
| 20260506200230 | 72 | 115 | 0.9 | 3.5 | 0.00 | 0.00 | 0.00 | 75 | 1010.1 |
| 20260506195730 | 72 | 105 | 0.9 | 3.5 | 0.00 | 0.00 | 0.00 | 75 | 1010.2 |
| 20260506195230 | 72 | 331 | 0.9 | 2.6 | 0.00 | 0.00 | 0.00 | 75 | 1009.7 |
| 20260506192734 | 71 | 97 | 0.9 | 3.5 | 0.00 | 0.00 | 0.00 | 75 | 1010.0 |
| 20260506191732 | 71 | 138 | 0.9 | 2.6 | 0.00 | 0.00 | 0.00 | 75 | 1010.4 |
| 20260506190732 | 71 | 96 | 0.0 | 2.6 | 0.00 | 0.00 | 0.00 | 76 | 1010.6 |
| 20260506190230 | 71 | 98 | 0.0 | 2.6 | 0.00 | 0.00 | 0.00 | 76 | 1010.4 |
| 20260506185234 | 71 | 9 | 0.0 | 4.3 | 0.00 | 0.00 | 0.00 | 78 | 1010.4 |
| 20260506184732 | 71 | 181 | 0.9 | 1.7 | 0.00 | 0.00 | 0.00 | 78 | 1010.5 |
| 20260506184231 | 70 | 171 | 0.9 | 1.7 | 0.00 | 0.00 | 0.00 | 78 | 1010.6 |
| 20260506183731 | 70 | 219 | 0.9 | 1.7 | 0.00 | 0.00 | 0.00 | 79 | 1010.8 |
| 20260506183234 | 70 | 321 | 0.0 | 3.5 | 0.00 | 0.00 | 0.00 | 80 | 1010.8 |
| 20260506182729 | 70 | 182 | 0.9 | 3.5 | 0.00 | 0.00 | 0.00 | 80 | 1010.9 |
| 20260506182232 | 69 | 122 | 0.9 | 2.6 | 0.00 | 0.00 | 0.00 | 80 | 1011.1 |
| 20260506181730 | 69 | 122 | 0.9 | 2.6 | 0.00 | 0.00 | 0.00 | 80 | 1011.0 |
| 20260506181233 | 69 | 216 | 0.9 | 2.6 | 0.00 | 0.00 | 0.00 | 80 | 1011.3 |
| 20260506180732 | 69 | 199 | 0.9 | 5.2 | 0.00 | 0.00 | 0.00 | 79 | 1011.4 |
| 20260506180232 | 69 | 5 | 0.9 | 5.2 | 0.00 | 0.00 | 0.00 | 80 | 1011.3 |
| 20260506175734 | 69 | 310 | 0.9 | 3.5 | 0.00 | 0.00 | 0.00 | 80 | 1011.3 |
| 20260506175231 | 69 | 340 | 0.9 | 2.6 | 0.00 | 0.00 | 0.00 | 79 | 1010.9 |
| 20260506174731 | 69 | 145 | 0.9 | 5.2 | 0.00 | 0.00 | 0.00 | 79 | 1011.2 |
| 20260506173729 | 70 | 310 | 0.9 | 2.6 | 0.00 | 0.00 | 0.00 | 80 | 1011.2 |
| 20260506173232 | 70 | 338 | 0.9 | 1.7 | 0.00 | 0.00 | 0.00 | 78 | 1011.2 |
| 20260506172735 | 70 | 164 | 0.0 | 1.7 | 0.00 | 0.00 | 0.00 | 78 | 1011.4 |
| 20260506172232 | 70 | 118 | 0.0 | 1.7 | 0.00 | 0.00 | 0.00 | 80 | 1011.5 |
| 20260506171805 | 70 | 136 | 0.0 | 1.7 | 0.00 | 0.00 | 0.00 | 79 | 1011.6 |
| 20260506170735 | 69 | 173 | 0.0 | 1.7 | 0.00 | 0.00 | 0.00 | 78 | 1011.6 |
| 20260506170233 | 69 | 84 | 0.9 | 1.7 | 0.00 | 0.00 | 0.00 | 77 | 1011.8 |
| 20260506165732 | 69 | 115 | 0.9 | 5.2 | 0.00 | 0.00 | 0.00 | 76 | 1011.9 |
| 20260506164222 | 70 | 164 | 0.9 | 4.3 | 0.00 | 0.00 | 0.00 | 74 | 1012.3 |
| 20260506163721 | 71 | 310 | 0.9 | 4.3 | 0.00 | 0.00 | 0.00 | 72 | 1012.6 |
| 20260506163218 | 72 | 169 | 0.9 | 3.5 | 0.00 | 0.00 | 0.00 | 72 | 1012.5 |
| 20260506162719 | 73 | 348 | 0.9 | 6.1 | 0.00 | 0.00 | 0.00 | 68 | 1012.5 |
| 20260506162216 | 73 | 348 | 0.9 | 6.1 | 0.00 | 0.00 | 0.00 | 68 | 1012.4 |
| 20260506161713 | 74 | 143 | 0.9 | 3.5 | 0.00 | 0.00 | 0.00 | 69 | 1012.4 |
| 20260506160213 | 74 | 134 | 0.9 | 3.5 | 0.00 | 0.00 | 0.00 | 67 | 1012.3 |
| 20260506155717 | 74 | 169 | 0.9 | 3.5 | 0.00 | 0.00 | 0.00 | 68 | 1012.6 |
| 20260506155208 | 73 | 267 | 0.0 | 2.6 | 0.00 | 0.00 | 0.00 | 69 | 1012.6 |
| 20260506154705 | 73 | 244 | 0.9 | 3.5 | 0.00 | 0.00 | 0.00 | 69 | 1012.6 |
| 20260506154203 | 73 | 113 | 0.9 | 3.5 | 0.00 | 0.00 | 0.00 | 69 | 1012.7 |
| 20260506153706 | 73 | 140 | 0.9 | 4.3 | 0.00 | 0.00 | 0.00 | 66 | 1012.6 |
| 20260506153205 | 73 | 124 | 0.9 | 4.3 | 0.00 | 0.00 | 0.00 | 67 | 1012.7 |
| 20260506152706 | 73 | 120 | 0.9 | 3.5 | 0.00 | 0.00 | 0.00 | 69 | 1012.7 |
| 20260506151146 | 73 | 143 | 0.0 | 2.6 | 0.00 | 0.00 | 0.00 | 69 | 1012.7 |
| 20260506150642 | 73 | 152 | 0.0 | 1.7 | 0.00 | 0.00 | 0.00 | 68 | 1012.6 |
| 20260506150148 | 73 | 119 | 0.0 | 3.5 | 0.00 | 0.00 | 0.00 | 69 | 1012.6 |
| 20260506145145 | 73 | 157 | 0.9 | 3.5 | 0.00 | 0.00 | 0.00 | 68 | 1012.7 |
| 20260506144640 | 73 | 210 | 0.9 | 3.5 | 0.00 | 0.00 | 0.00 | 70 | 1012.6 |
| 20260506144142 | 73 | 236 | 0.9 | 2.6 | 0.00 | 0.00 | 0.00 | 71 | 1012.5 |
| 20260506143642 | 73 | 119 | 0.9 | 2.6 | 0.00 | 0.00 | 0.00 | 70 | 1012.6 |
| 20260506143141 | 73 | 56 | 0.9 | 3.5 | 0.00 | 0.00 | 0.00 | 70 | 1012.7 |
| 20260506142639 | 72 | 101 | 0.9 | 3.5 | 0.00 | 0.00 | 0.00 | 69 | 1012.8 |
| 20260506141633 | 73 | 144 | 0.9 | 6.1 | 0.00 | 0.00 | 0.00 | 69 | 1012.7 |
| 20260506140635 | 72 | 17 | 0.9 | 2.6 | 0.00 | 0.00 | 0.00 | 69 | 1012.6 |
| 20260506140132 | 72 | 249 | 0.9 | 2.6 | 0.00 | 0.00 | 0.00 | 71 | 1012.6 |
| 20260506135631 | 71 | 127 | 0.9 | 2.6 | 0.00 | 0.00 | 0.00 | 72 | 1012.6 |
| 20260506134631 | 71 | 146 | 0.9 | 5.2 | 0.00 | 0.00 | 0.00 | 71 | 1012.7 |
| 20260506134134 | 71 | 202 | 0.9 | 5.2 | 0.00 | 0.00 | 0.00 | 72 | 1012.8 |
| 20260506133627 | 71 | 136 | 0.9 | 3.5 | 0.00 | 0.00 | 0.00 | 73 | 1012.8 |
| 20260506133121 | 70 | 337 | 0.9 | 2.6 | 0.00 | 0.00 | 0.00 | 73 | 1012.9 |
| 20260506132627 | 69 | 218 | 0.9 | 2.6 | 0.00 | 0.00 | 0.00 | 74 | 1012.9 |
| 20260506132127 | 69 | 44 | 0.0 | 1.7 | 0.00 | 0.00 | 0.00 | 75 | 1012.7 |
| 20260506131621 | 69 | 128 | 0.0 | 1.7 | 0.00 | 0.00 | 0.00 | 75 | 1012.9 |
| 20260506131125 | 69 | 110 | 0.0 | 0.9 | 0.00 | 0.00 | 0.00 | 76 | 1012.9 |
| 20260506130620 | 68 | 116 | 0.0 | 1.7 | 0.00 | 0.00 | 0.00 | 77 | 1012.9 |
| 20260506130120 | 67 | 114 | 0.0 | 2.6 | 0.00 | 0.00 | 0.00 | 78 | 1013.0 |
| 20260506125127 | 67 | 152 | 0.9 | 2.6 | 0.00 | 0.00 | 0.00 | 79 | 1013.0 |
| 20260506124116 | 66 | 115 | 0.9 | 2.6 | 0.00 | 0.00 | 0.00 | 79 | 1013.2 |
| 20260506123111 | 66 | 191 | 0.0 | 1.7 | 0.00 | 0.00 | 0.00 | 80 | 1013.0 |
| 20260506122110 | 66 | 211 | 0.9 | 3.5 | 0.00 | 0.00 | 0.00 | 80 | 1013.0 |
| 20260506121106 | 65 | 208 | 0.0 | 1.7 | 0.00 | 0.00 | 0.00 | 82 | 1013.0 |
| 20260506120609 | 65 | 207 | 0.0 | 0.0 | 0.00 | 0.00 | 0.00 | 82 | 1013.0 |
| 20260506120105 | 64 | 205 | 0.0 | 1.7 | 0.00 | 0.00 | 0.00 | 82 | 1012.9 |
| 20260506115603 | 64 | 207 | 0.0 | 1.7 | 0.00 | 0.00 | 0.00 | 82 | 1012.8 |
| 20260506115101 | 64 | 191 | 0.0 | 1.7 | 0.00 | 0.00 | 0.00 | 82 | 1013.1 |
| 20260506114557 | 64 | 192 | 0.0 | 1.7 | 0.00 | 0.00 | 0.00 | 82 | 1013.1 |
| 20260506113545 | 64 | 182 | 0.0 | 2.6 | 0.00 | 0.00 | 0.00 | 82 | 1013.0 |
| 20260506113040 | 64 | 247 | 0.0 | 0.0 | 0.00 | 0.00 | 0.00 | 83 | 1012.8 |
| 20260506112539 | 64 | 247 | 0.0 | 0.0 | 0.00 | 0.00 | 0.00 | 83 | 1012.9 |
| 20260506112038 | 64 | 247 | 0.0 | 0.0 | 0.00 | 0.00 | 0.00 | 84 | 1012.8 |
| 20260506111539 | 63 | 247 | 0.0 | 0.0 | 0.00 | 0.00 | 0.00 | 85 | 1013.0 |
| 20260506111039 | 63 | 247 | 0.0 | 0.9 | 0.00 | 0.00 | 0.00 | 85 | 1013.0 |
| 20260506110544 | 63 | 247 | 0.0 | 0.9 | 0.00 | 0.00 | 0.00 | 85 | 1013.1 |
| 20260506110042 | 62 | 247 | 0.0 | 1.7 | 0.00 | 0.00 | 0.00 | 85 | 1013.0 |
| 20260506105541 | 62 | 247 | 0.0 | 1.7 | 0.00 | 0.00 | 0.00 | 85 | 1013.1 |
| 20260506105044 | 62 | 245 | 0.0 | 0.0 | 0.00 | 0.00 | 0.00 | 85 | 1013.1 |
| 20260506104533 | 62 | 245 | 0.0 | 0.9 | 0.00 | 0.00 | 0.00 | 85 | 1013.2 |
| 20260506104044 | 62 | 245 | 0.0 | 1.7 | 0.00 | 0.00 | 0.00 | 85 | 1013.3 |
| 20260506103534 | 62 | 244 | 0.0 | 1.7 | 0.00 | 0.00 | 0.00 | 85 | 1013.3 |
| 20260506103040 | 62 | 234 | 0.0 | 0.0 | 0.00 | 0.00 | 0.00 | 86 | 1013.4 |
| 20260506102530 | 62 | 235 | 0.0 | 0.0 | 0.00 | 0.00 | 0.00 | 86 | 1013.2 |
| 20260506102036 | 62 | 235 | 0.0 | 0.0 | 0.00 | 0.00 | 0.00 | 86 | 1013.3 |
| 20260506101042 | 62 | 235 | 0.0 | 0.0 | 0.00 | 0.00 | 0.00 | 86 | 1012.9 |
| 20260506100533 | 62 | 235 | 0.0 | 0.0 | 0.00 | 0.00 | 0.00 | 86 | 1012.9 |
| 20260506095522 | 62 | 235 | 0.0 | 0.0 | 0.00 | 0.00 | 0.00 | 85 | 1012.9 |
| 20260506095019 | 62 | 235 | 0.0 | 0.0 | 0.00 | 0.00 | 0.00 | 85 | 1013.0 |
| 20260506094518 | 62 | 235 | 0.0 | 0.0 | 0.00 | 0.00 | 0.00 | 85 | 1013.0 |
| 20260506094013 | 62 | 235 | 0.0 | 0.0 | 0.00 | 0.00 | 0.00 | 85 | 1013.1 |
| 20260506093514 | 62 | 235 | 0.0 | 0.0 | 0.00 | 0.00 | 0.00 | 85 | 1013.0 |
| 20260506093017 | 62 | 235 | 0.0 | 0.0 | 0.00 | 0.00 | 0.00 | 85 | 1012.9 |
| 20260506092515 | 62 | 235 | 0.0 | 0.0 | 0.00 | 0.00 | 0.00 | 85 | 1013.0 |
| 20260506091515 | 62 | 235 | 0.0 | 0.0 | 0.00 | 0.00 | 0.00 | 85 | 1012.9 |
| 20260506091015 | 62 | 232 | 0.0 | 0.0 | 0.00 | 0.00 | 0.00 | 85 | 1012.9 |
| 20260506090515 | 63 | 232 | 0.0 | 0.0 | 0.00 | 0.00 | 0.00 | 85 | 1013.0 |
| 20260506090009 | 63 | 232 | 0.0 | 0.0 | 0.00 | 0.00 | 0.00 | 84 | 1012.9 |
| 20260506085508 | 63 | 232 | 0.0 | 1.7 | 0.00 | 0.00 | 0.00 | 84 | 1012.9 |
| 20260506085009 | 63 | 232 | 0.0 | 1.7 | 0.00 | 0.00 | 0.00 | 84 | 1013.2 |
| 20260506084512 | 63 | 238 | 0.0 | 1.7 | 0.00 | 0.00 | 0.00 | 84 | 1013.2 |
| 20260506084009 | 63 | 238 | 0.0 | 1.7 | 0.00 | 0.00 | 0.00 | 84 | 1013.1 |
| 20260506083511 | 63 | 236 | 0.0 | 0.9 | 0.00 | 0.00 | 0.00 | 84 | 1013.1 |
| 20260506083010 | 63 | 224 | 0.0 | 1.7 | 0.00 | 0.00 | 0.00 | 84 | 1013.1 |
| 20260506082509 | 63 | 224 | 0.0 | 1.7 | 0.00 | 0.00 | 0.00 | 84 | 1013.3 |
| 20260506081504 | 63 | 175 | 0.0 | 1.7 | 0.00 | 0.00 | 0.00 | 84 | 1013.2 |
| 20260506080505 | 63 | 189 | 0.0 | 1.7 | 0.00 | 0.00 | 0.00 | 84 | 1013.3 |
| 20260506073505 | 63 | 164 | 0.0 | 4.3 | 0.00 | 0.00 | 0.00 | 84 | 1013.2 |
| 20260506073011 | 63 | 163 | 0.0 | 4.3 | 0.00 | 0.00 | 0.00 | 84 | 1013.2 |
| 20260506072505 | 63 | 221 | 0.0 | 1.7 | 0.00 | 0.00 | 0.00 | 84 | 1013.1 |
| 20260506072008 | 63 | 215 | 0.0 | 1.7 | 0.00 | 0.00 | 0.00 | 84 | 1013.1 |
| 20260506071504 | 63 | 205 | 0.0 | 1.7 | 0.00 | 0.00 | 0.00 | 84 | 1013.2 |
| 20260506071002 | 63 | 205 | 0.0 | 1.7 | 0.00 | 0.00 | 0.00 | 84 | 1013.3 |
| 20260506070504 | 63 | 241 | 0.0 | 1.7 | 0.00 | 0.00 | 0.00 | 84 | 1013.3 |
| 20260506062454 | 64 | 229 | 0.0 | 0.9 | 0.00 | 0.00 | 0.00 | 82 | 1013.5 |
| 20260506061947 | 64 | 240 | 0.0 | 0.9 | 0.00 | 0.00 | 0.00 | 82 | 1013.5 |
| 20260506061445 | 64 | 239 | 0.0 | 1.7 | 0.00 | 0.00 | 0.00 | 82 | 1013.5 |
| 20260506060932 | 64 | 203 | 0.0 | 1.7 | 0.00 | 0.00 | 0.00 | 82 | 1013.5 |
| 20260506060426 | 64 | 179 | 0.0 | 1.7 | 0.00 | 0.00 | 0.00 | 82 | 1013.5 |
| 20260506051407 | 65 | 160 | 0.0 | 1.7 | 0.00 | 0.00 | 0.00 | 80 | 1013.8 |
| 20260506050911 | 65 | 163 | 0.0 | 1.7 | 0.00 | 0.00 | 0.00 | 80 | 1013.9 |
| 20260506050406 | 65 | 162 | 0.0 | 1.7 | 0.00 | 0.00 | 0.00 | 80 | 1014.0 |
| 20260506044905 | 66 | 236 | 0.0 | 1.7 | 0.00 | 0.00 | 0.00 | 80 | 1014.0 |
| 20260506044405 | 66 | 132 | 0.0 | 1.7 | 0.00 | 0.00 | 0.00 | 80 | 1014.0 |
| 20260506041856 | 66 | 164 | 0.0 | 2.6 | 0.00 | 0.00 | 0.00 | 79 | 1014.0 |
| 20260506040844 | 66 | 127 | 0.9 | 1.7 | 0.00 | 0.00 | 0.00 | 79 | 1013.9 |
| 20260506040342 | 66 | 200 | 0.0 | 1.7 | 0.00 | 0.00 | 0.00 | 79 | 1013.9 |
| 20260506035842 | 66 | 283 | 0.0 | 1.7 | 0.00 | 0.00 | 0.00 | 79 | 1013.9 |
| 20260506035342 | 66 | 257 | 0.9 | 1.7 | 0.00 | 0.00 | 0.00 | 79 | 1014.0 |
| 20260506034336 | 66 | 238 | 0.9 | 1.7 | 0.00 | 0.00 | 0.00 | 79 | 1013.9 |
| 20260506033837 | 67 | 346 | 0.9 | 1.7 | 0.00 | 0.00 | 0.00 | 78 | 1014.0 |
| 20260506033339 | 67 | 351 | 0.0 | 1.7 | 0.00 | 0.00 | 0.00 | 78 | 1014.0 |
| 20260506032833 | 67 | 305 | 0.0 | 0.9 | 0.00 | 0.00 | 0.00 | 78 | 1014.0 |
| 20260506032333 | 67 | 295 | 0.0 | 1.7 | 0.00 | 0.00 | 0.00 | 78 | 1013.9 |
| 20260506031831 | 67 | 274 | 0.9 | 1.7 | 0.00 | 0.00 | 0.00 | 78 | 1014.0 |
| 20260506031330 | 67 | 316 | 0.0 | 1.7 | 0.00 | 0.00 | 0.00 | 78 | 1014.0 |